Tracking 19651 objects as of 22-Apr-2019
HD Live streaming from Space Station
objects crossing your sky now

TISAT 1

Track TISAT 1 now!
10-day predictions
TISAT 1 is classified as:


NORAD ID: 36799
Int'l Code: 2010-035E
Perigee: 594.2 km
Apogee: 609.4 km
Inclination: 98.1 °
Period: 96.6 minutes
Semi major axis: 6972 km
RCS: 0.056 m2 (small)
Launch date: July 12, 2010
Source: (SWTZ)
Launch site: SRIHARIKOTA (SRI)

Uplink (MHz): 145.980
Downlink (MHz): 437.305
Beacon (MHz): 145.980
Mode: FM AFSK PSK CW
Call sign: HB9DE
Status: Inactive

aabbcc
Your satellite tracking list
Your tracking list is empty




NASA's NSSDC Master Catalog

Two Line Element Set (TLE):
1 36799U 10035E   19112.10497618  .00000419  00000-0  48459-4 0  9991
2 36799  98.1474 262.3759 0010919 275.0233  84.9738 14.91058634476181
Source of the keplerian elements: Caltech